SCP
0 0 0 0 0 -0 -0 -0 -0 -0 0 0 0 0 0 -0 -0 -0 0 0 0 0 0 0 0 0 0 0 0 0 0 0 0 0 0 0 0 0 0 0 0 0 0 0 0 0 0 0 0
0 0 0 0 0 -0 -0 -0 -0 0 0 0 0 0 0 0 0 0 0 0 0 0 0 0 0 0 0 0 0 0 0 0 0 0 0 0 0 0 0 0 0 0 0 0 0 0 0 0 0
0 0 0 0 -0 -0 -0 -0 -0 0 0 0 0 0 0 0 0 0 0 0 0 0 0 0 0 0 0 0 0 0 0 0 0 0 0 0 0 0 0 0 0 0 0 0 0 0 0 0 0
0 0 0 0 0 -0 -0 -0 0 0 0 0 0 0 0 0 0 0 0 0 0 0 0 0 0 0 0 0 0 0 0 0 0 0 0 0 0 0 0 0 0 0 0 0 0 0 0 0 0
0 0 0 0 0 0 0 -0 0 0 0 0 0 0 0 0 0 0 0 0 0 0 0 0 0 0 0 0 0 0 0 0 0 0 0 0 0 0 0 0 0 0 0 0 0 0 0 0 0
0 0 0 0 0 0 0 -0 0 0 0 0 0 0 0 0 0 0 0 0 0 0 0 0 0 0 0 0 0 0 0 0 0 0 0 0 0 0 0 0 0 0 0 0 0 0 0 0 0
0 0 0 0 0 0 0 0 0 0 0 0 0 0 0 0 0 0 0 0 0 0 0 0 0 0 0 0 0 0 0 0 0 0 0 0 0 0 0 0 0 0 0 0 -0 -0 0 0 0
0 0 0 -0 0 0 0 0 0 0 0 0 0 0 0 0 0 0 0 0 0 0 0 0 0 0 0 0 0 0 0 0 0 0 0 0 0 0 0 0 0 -0 -0 -0 -0 -0 0 0 0
0 0 0 0 0 0 0 0 0 0 0 0 0 0 0 0 0 0 0 0 0 0 0 0 0 0 0 0 0 0 0 0 0 0 0 0 0 0 0 -0 -0 -0 -0 -0 -0 -0 0 0 0
0 0 0 0 0 0 0 0 0 0 0 0 0 0 0 0 0 0 0 0 0 0 0 0 0 0 0 0 0 0 0 0 0 0 0 0 0 -0 -0 -0 -0 -0 -0 -0 -0 -0 0 0 0
0 0 0 0 0 0 0 0 0 0 0 0 0 0 0 0 0 0 0 0 0 0 0 0 0 0 0 0 0 0 0 0 0 0 0 0 0 -0 -0 -0 -0 -0 -0 -0 -0 0 0 0 0
0 0 0 0 0 -0 0 0 0 0 0 0 0 0 0 0 0 0 0 0 0 1 1 1 0 0 0 0 0 0 0 0 0 0 0 0 0 -0 -0 -0 -0 -0 -0 -0 -0 0 0 0 0
0 0 0 0 -0 -0 0 0 0 0 0 0 0 0 0 0 0 0 0 0 0 1 1 1 1 0 0 0 0 0 0 0 0 0 0 -0 -0 -0 -0 -0 -0 -0 -0 -0 -0 0 0 0 0
0 0 0 0 0 -0 0 0 0 0 0 0 0 0 0 0 0 0 0 0 0 1 1 1 0 0 0 0 0 0 0 0 0 0 -0 -0 -0 0 -0 -0 -0 -0 -0 -0 0 0 0 0 0
0 0 0 0 0 0 0 0 0 0 0 0 0 0 0 0 0 0 0 0 1 1 1 0 0 0 0 0 1 1 0 0 0 0 0 -0 0 0 0 -0 -0 -0 0 0 0 0 0 0 0
0 0 0 0 0 0 0 0 0 0 0 0 0 0 0 0 0 0 0 1 1 1 1 0 0 0 0 1 1 1 0 0 0 0 0 0 0 0 0 0 0 0 0 0 0 0 0 0 0
0 0 0 0 0 0 0 0 0 0 0 0 0 0 0 0 0 0 0 1 1 1 1 1 0 0 0 0 0 1 0 0 0 0 0 0 0 0 0 0 0 0 0 0 0 0 0 0 0
0 0 0 0 0 0 0 0 0 0 0 0 0 0 0 0 0 0 0 0 1 1 1 1 0 0 0 0 0 0 0 0 0 0 0 0 0 0 0 0 0 0 0 0 0 0 0 0 0
0 0 0 0 0 0 0 0 0 0 0 0 0 0 0 0 0 0 0 0 0 1 1 0 0 0 0 0 0 0 0 0 0 0 0 0 0 0 0 0 0 0 0 0 0 0 0 0 0
0 0 0 0 0 0 0 0 0 0 0 0 0 0 0 0 0 0 0 0 0 0 0 0 0 0 0 0 0 0 0 0 0 0 0 0 0 0 0 0 0 0 0 0 0 0 0 0 0
0 0 0 0 0 0 0 0 0 0 0 0 0 0 0 0 0 0 0 0 0 0 0 0 0 0 0 0 0 0 0 0 0 0 0 0 0 0 0 0 0 0 0 0 0 0 0 0 0
0 0 0 0 0 0 0 0 0 0 0 0 0 0 0 0 0 0 0 0 0 0 0 0 0 0 0 0 0 0 0 0 0 0 0 0 0 0 0 0 0 0 0 0 0 0 0 0 0
0 0 0 0 0 0 0 0 0 0 0 0 0 0 0 0 0 0 0 0 0 0 0 0 0 0 0 0 0 0 0 0 0 0 0 0 0 0 0 0 0 0 0 0 0 0 0 0 0
0 0 0 0 0 0 0 0 0 0 0 0 0 0 0 0 0 0 0 0 0 0 0 0 0 0 0 0 0 0 0 0 0 0 0 0 0 0 0 0 0 0 0 0 0 0 0 0 0
0 0 0 0 0 0 0 0 0 0 0 0 0 0 0 0 0 0 0 0 0 0 0 0 0 0 0 0 0 0 0 0 0 0 0 0 0 0 0 0 0 0 0 0 0 0 0 0 0
0 0 0 0 0 0 0 0 0 0 0 0 0 0 0 0 0 0 0 0 0 0 0 0 0 0 0 0 0 0 0 0 0 0 0 0 0 0 0 0 0 0 0 0 0 0 0 0 0
0 0 0 0 0 0 0 0 0 0 0 0 0 0 0 0 0 0 0 0 0 0 0 0 0 0 0 0 0 0 0 0 0 0 0 0 0 0 0 0 0 0 0 0 0 0 0 0 0
0 0 0 0 0 0 0 0 0 0 0 0 0 0 0 0 0 0 0 0 0 0 0 0 0 0 0 0 0 0 0 0 0 0 0 0 0 0 0 0 0 0 0 0 0 0 0 0 0
0 0 0 0 0 0 0 0 0 0 0 0 0 0 0 0 0 0 0 0 0 0 0 0 0 0 0 0 0 0 0 0 0 0 0 0 0 0 0 0 0 0 0 0 0 0 0 0 0
0 0 0 0 0 0 0 0 0 0 0 0 0 0 0 0 0 0 0 0 0 0 0 0 0 0 0 0 0 0 0 0 0 0 0 0 0 0 0 0 0 0 0 0 0 0 0 0 0
Wind_Speed
5 5 0 1 4 4 1 2 3 2 1 1 5 9 7 3 2 2 2 6 9 9 7 9 11 10 10 10 11 11 12 14 13 12 11 11 12 12 12 13 13 13 14 13 11 11 10 10 10
2 3 2 2 4 3 2 2 2 4 4 7 9 9 6 3 4 6 4 8 10 9 6 5 11 11 10 10 11 11 13 14 13 12 11 11 11 12 12 13 14 14 13 11 10 10 10 10 9
1 1 3 3 2 4 3 2 3 3 8 6 5 5 4 3 7 8 6 11 11 9 6 7 12 11 10 10 11 11 13 13 13 12 12 11 12 12 12 12 13 14 12 10 9 8 9 9 8
1 3 3 2 1 2 1 1 1 1 3 4 5 5 4 4 8 8 10 11 10 8 5 8 11 11 11 11 11 12 13 14 13 13 12 11 11 12 12 11 13 13 11 9 8 7 8 8 8
4 5 5 4 6 4 0 1 4 5 3 3 5 5 3 2 10 13 12 12 11 8 6 8 12 12 12 12 13 12 13 13 13 13 12 11 11 12 12 12 13 12 10 9 7 6 7 7 8
5 5 4 3 10 8 3 2 4 6 6 6 8 6 3 10 15 13 13 11 11 10 7 7 11 12 12 13 14 14 13 13 13 13 12 10 10 12 11 12 12 11 9 8 7 6 7 8 9
5 5 4 2 10 6 2 0 2 3 4 7 12 7 6 11 13 12 10 8 8 8 7 6 6 9 11 12 14 14 13 13 13 12 11 10 10 11 11 11 10 10 8 7 5 6 7 8 9
6 7 6 6 8 4 2 0 1 3 2 7 9 7 7 13 12 9 8 8 9 7 6 5 4 4 5 6 11 13 13 14 13 12 10 9 8 8 9 9 9 9 8 7 4 3 5 8 10
5 5 5 8 6 3 2 3 5 2 1 2 3 5 11 15 12 9 7 6 8 7 6 6 5 5 4 4 7 10 12 13 13 11 11 8 3 3 5 6 9 8 7 6 3 2 6 10 10
4 4 5 5 4 2 1 1 4 3 3 3 5 6 13 15 14 13 12 12 10 10 8 8 8 7 5 5 4 4 5 6 5 4 4 4 3 3 5 7 10 8 6 4 2 3 6 7 5
3 1 4 6 2 0 1 3 4 2 1 8 10 12 13 14 15 16 16 16 14 13 13 11 10 9 7 5 4 2 2 3 3 4 4 4 3 2 2 2 3 3 3 2 2 3 4 4 3
3 1 2 11 6 1 1 1 3 1 3 8 15 18 16 14 16 17 16 13 13 15 16 15 13 11 9 7 4 4 3 3 3 4 4 4 3 2 2 2 2 2 2 1 3 3 4 2 5
2 3 6 12 8 3 2 1 3 4 5 6 12 13 12 11 11 12 14 14 15 16 14 14 14 13 9 9 6 5 5 6 5 5 4 4 4 4 4 3 2 2 2 2 3 3 2 4 5
4 6 8 10 10 4 3 3 3 5 1 9 10 10 10 10 8 5 9 12 13 15 12 12 11 10 7 8 9 8 6 5 5 6 6 6 5 6 5 4 3 3 2 2 2 4 2 2 4
2 6 11 11 7 6 2 2 4 4 0 6 6 6 6 7 4 3 9 11 11 9 6 10 12 13 12 9 11 10 9 8 6 7 8 7 6 6 5 4 4 5 4 4 2 4 2 3 4
2 4 7 8 3 5 5 5 8 6 2 4 4 3 8 7 7 4 4 11 14 16 12 12 13 14 15 13 12 10 9 9 7 7 7 7 7 7 7 5 5 5 5 6 4 3 2 2 4
3 6 5 5 2 3 4 6 9 6 2 3 4 5 8 8 7 4 3 7 11 16 16 13 9 9 10 11 9 9 8 8 7 6 6 5 8 9 9 7 5 6 6 6 6 4 2 3 4
6 4 4 6 5 5 7 9 9 7 4 1 4 5 8 7 5 2 2 4 9 10 10 10 6 4 4 2 2 5 5 4 4 4 5 6 7 9 7 7 7 6 6 6 7 6 3 3 4
6 5 6 7 9 3 6 10 10 9 3 4 7 6 8 6 5 5 4 5 6 6 6 6 7 6 5 3 2 4 4 2 2 3 6 5 6 6 6 5 6 6 6 8 9 6 5 2 2
12 7 8 9 8 4 6 5 6 4 5 10 12 9 8 7 4 4 5 4 4 4 3 2 4 6 7 5 2 2 2 2 2 3 4 6 5 7 9 9 7 8 7 7 8 5 4 2 3
9 6 5 8 6 3 3 5 5 4 0 7 10 10 9 9 8 6 4 3 4 4 3 2 3 4 4 4 2 3 2 1 1 2 3 6 8 6 9 9 8 8 8 8 7 6 5 5 3
6 6 5 5 2 4 1 7 7 3 3 4 6 6 7 7 8 7 6 5 4 3 3 4 4 3 3 5 4 4 3 3 2 3 2 2 6 9 7 8 7 6 7 8 8 8 5 6 5
8 7 3 3 2 3 1 1 7 1 5 6 6 6 7 7 7 8 7 6 5 5 4 4 4 3 3 3 4 4 3 3 3 3 4 3 1 5 5 6 7 6 5 4 4 6 6 4 6
1 1 4 3 2 4 5 4 6 3 6 5 4 6 7 7 7 7 7 7 6 6 6 5 5 5 5 4 4 5 6 7 6 6 5 3 1 1 2 4 2 5 5 3 3 3 5 6 4
3 4 2 3 0 5 5 4 6 3 6 7 8 8 8 9 7 7 8 8 8 8 7 6 6 5 5 4 4 5 6 8 10 10 7 4 3 2 2 2 2 5 5 4 4 4 6 6 5
4 7 7 5 4 4 2 4 5 5 5 5 7 8 9 9 9 10 10 9 9 8 7 7 6 6 5 5 5 5 6 5 4 7 8 6 3 3 4 2 2 4 6 4 6 6 6 5 6
5 5 6 3 1 2 3 2 4 2 3 4 6 6 8 9 9 10 10 10 9 9 8 8 8 7 7 6 5 5 5 6 6 8 6 6 6 5 8 5 3 5 5 8 7 6 6 6 5
4 4 4 2 1 3 3 2 6 4 7 8 7 9 9 8 8 7 8 10 10 10 9 8 8 8 7 6 6 5 6 7 9 10 8 5 5 5 6 5 4 6 8 9 8 5 6 6 5
2 1 1 2 3 3 3 6 7 10 12 10 11 11 9 9 8 7 8 9 9 8 7 8 7 6 5 5 6 7 7 7 7 7 6 5 3 3 5 4 4 7 7 6 5 6 7 7 6
3 2 5 3 4 2 3 7 4 6 8 6 8 7 8 9 8 8 8 8 8 9 9 8 7 7 7 7 6 6 7 7 7 6 5 6 6 5 5 7 8 10 8 6 6 6 7 9 8
Wind_Direction
273 278 354 34 48 57 9 231 182 198 155 98 87 99 107 84 83 145 162 161 139 145 158 165 151 146 145 143 142 144 140 133 132 127 119 116 116 118 120 118 117 113 106 103 100 96 90 83 81
315 316 48 33 72 74 284 263 201 217 126 114 106 110 102 104 124 129 134 140 137 144 148 155 147 145 146 145 145 145 137 134 132 130 123 118 118 117 119 121 122 115 111 108 102 93 89 85 77
288 23 41 43 88 176 208 258 226 217 153 145 115 90 99 125 134 151 153 139 139 141 146 158 147 145 145 147 146 141 136 133 134 134 127 122 119 115 116 119 123 117 113 108 97 86 83 82 78
83 55 49 53 301 249 183 315 298 151 97 74 101 79 82 133 146 152 143 138 133 135 142 143 145 146 144 143 141 139 139 137 138 137 131 125 121 121 116 119 125 121 113 108 98 86 78 75 74
60 70 54 19 315 315 341 189 62 37 75 103 110 108 89 108 132 140 146 142 138 136 132 139 147 147 145 140 139 140 139 139 141 135 127 126 125 123 120 117 122 121 117 109 96 83 78 78 71
55 59 63 339 306 304 329 325 75 78 111 128 111 115 147 154 149 159 157 151 143 134 132 141 148 148 146 143 144 143 145 145 143 131 129 127 124 122 121 117 121 120 109 100 94 90 91 85 63
108 103 117 282 290 298 325 75 112 132 166 163 143 121 143 169 170 168 155 133 123 132 139 135 145 148 149 149 148 146 148 149 147 141 136 130 123 119 121 124 127 124 111 99 94 101 100 82 58
116 110 137 233 258 266 296 345 253 168 191 143 155 145 173 190 178 152 130 130 136 141 137 131 138 141 142 154 154 153 154 157 155 149 147 139 130 125 129 130 136 140 121 104 94 84 78 63 53
100 103 187 222 222 251 336 9 316 332 48 136 174 161 162 164 158 131 130 147 147 145 149 156 153 146 142 153 165 163 164 166 161 160 159 143 116 127 132 144 152 146 130 117 96 49 36 40 47
76 141 220 245 211 219 11 17 306 356 50 54 63 105 135 146 158 157 167 178 167 161 174 173 166 159 158 166 161 160 164 156 153 160 152 137 146 160 164 170 160 152 143 124 86 26 26 31 45
35 96 320 305 267 265 352 331 328 341 120 165 154 151 157 164 173 176 182 185 175 171 178 183 177 171 165 163 149 149 155 145 150 169 165 150 152 176 165 146 151 144 133 89 51 355 10 11 65
79 356 355 290 271 206 256 292 320 297 270 171 168 168 176 180 184 185 185 182 177 175 183 180 177 173 171 155 157 154 167 155 160 188 182 162 155 158 169 174 175 171 149 118 62 12 2 47 105
154 218 252 252 256 235 231 256 278 286 291 154 166 176 191 190 192 188 179 181 182 178 177 182 176 177 170 153 158 159 178 176 175 187 191 179 162 167 180 189 185 197 194 147 104 64 51 125 108
222 249 271 281 272 265 231 277 287 286 299 143 162 185 204 208 210 159 170 175 179 173 171 168 177 175 176 169 163 166 178 179 178 186 192 192 170 166 174 187 190 194 201 110 139 101 123 105 103
305 300 293 274 257 235 211 283 240 270 242 183 181 173 190 195 127 138 191 174 155 140 142 146 174 186 179 193 177 167 179 176 184 190 195 182 174 173 151 184 191 184 172 145 140 115 150 111 101
271 262 268 278 243 213 162 233 240 250 199 231 226 136 100 98 79 34 172 149 140 141 162 171 185 191 180 184 188 174 175 174 183 186 198 185 169 164 146 169 188 176 158 145 146 125 125 113 107
263 244 250 284 248 195 190 233 255 256 225 242 220 150 123 100 74 35 92 143 158 165 175 176 184 183 184 182 180 169 167 184 189 180 186 180 157 166 155 168 179 168 159 145 150 124 126 122 117
233 255 267 270 263 184 208 238 257 269 249 229 146 131 120 117 115 83 18 181 177 176 181 174 172 169 166 145 150 151 156 191 204 188 183 185 163 169 153 160 165 159 146 137 141 128 121 132 141
240 237 252 262 269 260 248 233 242 249 233 123 133 146 131 124 130 110 59 75 137 158 179 184 171 155 135 138 147 151 166 173 224 217 189 187 168 180 140 151 151 148 147 151 134 115 117 102 114
254 262 271 281 274 263 259 250 246 255 225 169 161 167 161 145 128 96 81 83 113 138 162 189 169 150 159 159 157 122 145 184 203 198 178 176 169 165 146 150 153 150 151 137 117 112 127 134 181
252 226 233 259 297 306 276 291 294 293 143 147 162 173 168 154 150 145 128 115 112 129 156 166 177 163 151 132 152 124 140 189 143 143 172 160 139 134 134 144 144 152 155 150 150 149 167 143 191
253 242 241 261 275 286 1 291 287 240 175 189 184 174 168 160 149 156 146 143 145 145 141 148 170 184 174 163 181 173 168 196 170 164 145 110 141 135 145 144 138 144 152 164 174 165 165 146 161
237 264 260 260 225 281 283 259 286 168 207 221 211 186 178 168 166 171 162 162 162 162 178 188 175 189 214 198 195 173 142 112 105 104 87 71 26 120 147 143 143 150 143 149 176 170 167 162 167
299 33 24 29 60 286 249 204 272 232 202 182 210 200 184 182 194 183 166 162 165 173 182 183 181 202 197 195 189 160 151 135 125 107 90 94 192 46 59 89 142 154 143 154 182 202 193 192 179
83 77 0 344 256 241 239 194 254 249 173 175 193 200 195 190 189 182 174 175 172 179 182 177 178 185 177 177 180 165 167 160 153 139 132 143 190 156 75 63 191 200 176 162 163 196 213 199 184
180 148 175 195 210 263 268 242 256 217 190 182 187 186 188 195 194 190 186 179 179 180 181 172 166 171 168 174 188 190 180 142 128 125 135 155 175 155 139 226 252 223 180 175 191 193 208 194 189
172 178 180 156 258 269 253 288 310 299 254 203 197 190 199 197 198 197 186 180 179 174 179 177 171 174 171 174 175 185 166 134 126 120 140 157 160 170 152 167 228 249 217 196 191 192 204 195 198
149 159 112 92 215 256 269 238 229 219 239 230 219 215 216 210 200 196 183 181 180 181 184 182 181 182 181 178 178 175 173 157 157 154 158 155 155 156 132 126 190 215 221 198 183 200 203 198 205
162 119 103 184 173 194 240 260 222 203 225 222 222 216 210 210 201 185 186 182 176 176 179 188 192 184 184 197 188 173 181 175 173 177 173 163 166 160 132 132 258 245 236 223 195 199 194 198 206
101 112 123 176 246 196 195 266 256 236 265 241 232 228 206 202 199 182 180 173 171 177 180 187 189 174 186 197 195 171 175 180 184 197 199 185 179 167 184 167 228 257 251 239 215 201 191 201 206